Location: *
(45.1961°N, 1.9694°E)
Time: 16:56:29
(UTC+00:00)

Cosmos 1833 Rocket - Pass Details

Date: 25 August 2019
Orbit: 834 x 838 km, 71.0° (Epoch: 21 September)

Event Time Altitude Azimuth Distance (km) Brightness Sun altitude
Rises 19:17:35 0° 165° (SSE) 3,376 5.5 -6.6°
Reaches altitude 10° 19:20:30 10° 151° (SSE) 2,446 4.6 -7.1°
Maximum altitude 19:24:45 23° 101° (E) 1,727 3.8 -7.8°
Drops below altitude 10° 19:29:02 10° 52° (NE) 2,458 4.9 -8.5°
Sets 19:31:56 0° 38° (NE) 3,397 5.7 -8.9°
